Regional Weather Roundup
Issued by NWS Grand Forks, ND

Home | Current Version | Previous Version | Graphics & Text | Print | Product List | Glossary On
Versions: 1 2 3 4 5 6 7 8 9 10 11 12 13 14 15 16 17 18 19 20 21 22 23 24 25 26 27 28 29 30 31 32 33 34 35 36 37 38 39 40 41 42 43 44 45 46 47 48 49 50
564
ASUS43 KFGF 202131
RWRFGF
PRAIRIE TO PINES  WEATHER ROUNDUP
NATIONAL WEATHER SERVICE EASTERN NORTH DAKOTA/GRAND FORKS ND
400 PM CDT FRI APR 20 2018

 **SATELLITE DATA USED TO AUGMENT SKY COVER AT AUTOMATED STATIONS**
 *****  WEATHER ACROSS EASTERN NORTH DAKOTA  *****

CITY           SKY/WX    TMP DP  RH WIND       PRES   REMARKS
GRAND FORKS    FAIR      51  36  56 S12       30.36F
GRAND FRKS AFB FAIR      52  33  49 S15       30.36F
GRAND FRKS NWS   N/A     53  35  50 S13       30.33F
DEVILS LAKE    FAIR      54  27  35 SE12      30.31F
FARGO          FAIR      55  30  38 SE12G25   30.36F
WAHPETON ARPT  FAIR      52  32  46 SE10      30.36F
$$

 ***** WEATHER ACROSS CENTRAL AND WESTERN NORTH DAKOTA  *****

CITY           SKY/WX    TMP DP  RH WIND       PRES   REMARKS
BISMARCK       FAIR      63  27  25 S17G29    30.23F
MINOT          FAIR      59  33  37 SE15G25   30.22F
JAMESTOWN      FAIR      57  34  41 S13       30.30F
MINOT AFB      FAIR      58  32  36 S15       30.21F
GARRISON         N/A     56  33  42 SE13      30.20F
WILLISTON      FAIR      65  31  28 SE14      30.13F
DICKINSON      FAIR      63  27  25 SE22G29   30.12F
HETTINGER      FAIR      60  31  33 SE20G25   30.15F
$$

 *****  OTHER AIRPORT OBSERVATIONS IN OUR AREA  *****

CITY           SKY/WX    TMP DP  RH WIND       PRES   REMARKS
WALHALLA       FAIR      59  28  31 SW8G15    30.31F
GRAFTON AIRPOR FAIR      55  32  41 S14G20    30.36F
VALLEY CITY AR FAIR      52  32  46 SE9       30.34F
CANDO          FAIR      57  21  24 S12       30.30F
CAVALIER APRT    N/A     57  34  41 S14       30.32F
GWINNER          N/A     55  36  47 SE12      30.32F
ROLLA          FAIR      54  32  43 S9G16     30.28F
 ***** THE ABOVE OBSERVATIONS ARE NON NWS ARE NOT QUALITY
       CONTROLLED AND MAY MIS-REPORT RAIN FOR SNOW...
$$

  *****  WEATHER ACROSS NORTHERN MINNESOTA  *****

CITY           SKY/WX    TMP DP  RH WIND       PRES   REMARKS
FLAG ISLAND    FAIR      46  25  42 SE12      30.33F
WARROAD        FAIR      55  36  47 W6        30.35F
ROSEAU         FAIR      55  39  54 W8G18     30.36S
HALLOCK        FAIR      59  34  38 S14G20    30.34F
THF RVR FALLS  FAIR      54  33  45 VRB7      30.38F
BAUDETTE       CLOUDY    59  31  34 NW10      30.34F
WASKISH        CLOUDY    55  28  35 W7        30.36F
CROOKSTON      FAIR      54  36  50 SW9       30.37F
STEPHEN NDAWN    N/A     55  36  47 S12         N/A
GREENBUSH NDAW   N/A     54  36  50 S10         N/A
$$
  *****  WEATHER ACROSS CENTRAL AND WEST MINNESOTA  *****

CITY           SKY/WX    TMP DP  RH WIND       PRES   REMARKS
FOSSTON        FAIR      55  28  35 S10       30.37S
BEMIDJI        FAIR      55  27  34 S9        30.35F
PARK RAPIDS    FAIR      54  26  34 S8        30.37F
ELBOW LAKE     FAIR      53  31  44 S7        30.38F
WADENA         FAIR      52  27  37 S7        30.38F
DETROIT LAKES  FAIR      54  19  26 S6        30.38F
MOORHEAD       FAIR      54  25  32 SE9       30.37F
FERGUS FALLS   FAIR      54  27  35 S5        30.35F
MORRIS MN      FAIR      54  37  54 SE10      30.37F
STAPLES        FAIR      52  16  24 SW6       30.40S
$$
  *****  WEATHER ELSEWHERE ACROSS MINNESOTA  *****

CITY           SKY/WX    TMP DP  RH WIND       PRES   REMARKS
DULUTH         FAIR      54  24  31 SW9       30.38F
INTRNTL FALLS  FAIR      58  20  22 VRB6      30.35F
ELY            FAIR      55  10  16 W5        30.35F
CLOQUET        FAIR      55  19  24 S6        30.38F
WHEATON        FAIR      52  37  58 SE12      30.38F
BRAINERD       FAIR      54  21  27 S9        30.40F
HIBBING        FAIR      55  19  24 MISG      30.36F
ALEXANDRIA     FAIR      53  21  28 SE5       30.39F
SAINT CLOUD    FAIR      50  21  32 S6        30.42F
MINNEAPOLIS    PTSUNNY   51  17  26 SE7       30.44F
$$

  *****  WEATHER ACROSS SOUTH DAKOTA  *****

CITY           SKY/WX    TMP DP  RH WIND       PRES   REMARKS
SIOUX FALLS    CLOUDY    49  35  58 SE8       30.34F
BROOKINGS      FAIR      48  37  65 SE9       30.35F
WATERTOWN      FAIR      50  38  63 S10       30.33F
HURON          FAIR      48  36  63 SE8       30.33F
SISSETON         N/A     54  40  59 SE12      30.34F
ABERDEEN       FAIR      55  37  50 S12       30.32F
MITCHELL       FAIR      45  37  73 E12       30.32F
PIERRE         FAIR      51  34  52 SE18G24   30.26R
MOBRIDGE       FAIR      55  34  45 SE17      30.23F
RAPID CITY     LGT RAIN  44  40  85 SE22      30.16R
$$

  *****  SOME WEATHER IN NEARBY STATES *****

CITY           SKY/WX    TMP DP  RH WIND       PRES   REMARKS
GLASGOW MT     FAIR      65  35  33 E5        30.08F
GREAT FALLS MT FAIR      62  19  19 CALM      30.08F
CHEYENNE WY    CLOUDY    38  34  85 SE18G29   29.97R
SCOTTSBLUFF NE CLOUDY    39  36  89 SE22G31   30.07S
OMAHA NE       CLOUDY    62  26  25 E13G24    30.29F
DES MOINES IA  CLOUDY    59  27  29 SE9       30.36F
DAVENPORT IA   FAIR      60  13  15 S10       30.44F
CHICAGO IL     FAIR      61  21  21 E8        30.44F
EAU CLAIRE WI  FAIR      54  20  26 W5        30.43F
LA CROSSE WI   FAIR      56  17  21 SW9       30.44F
$$

  *****  SOME NATIONAL WEATHER *****

CITY           SKY/WX    TMP DP  RH WIND       PRES   REMARKS
LA GUARDIA NY  FAIR      50  25  37 NW22G31   30.20R
RALEIGH NC     FAIR      65  29  25 VRB5      30.28F
ATLANTA GA     FAIR      67  28  23 NE7       30.26F
NEW ORLEANS LA PTSUNNY   68  43  40 VRB6      30.20F
OKLAHOMA CITY  PTSUNNY   67  34  29 S21G30    30.11F
ALBUQUERQUE NM FAIR      60   5  11 SW18G26   29.91F
SALT LAKE CITY PTSUNNY   60  35  39 N14       29.99R
LOS ANGELES CA FAIR      66  50  56 W16       30.08S
BOISE ID       FAIR      66  30  26 W18G28    30.09F
SEATTLE WA     PTSUNNY   60  35  39 SW8       30.20F
$$

*** WEATHER ACROSS MANITOBA...SASKATCHEWAN AND ONTARIO ***
                ***ONTARIO***

CITY           SKY/WX    TMP DP  RH WIND       PRES   REMARKS
GERALDTON      MOSUNNY   55  12  18 NW8       30.33F
THUNDER BAY    CLOUDY    57  14  18 S12       30.37F
SIOUX LOOKOUT  PTSUNNY   55  14  19 S7        30.33F
TORONTO        SUNNY     46  25  42 W9G18     30.39S
BIG TROUT LK   SUNNY     48  19  32 SE3       30.38F
PICKLE LAKE    MOSUNNY   55  19  24 VRB2      30.34F
DRYDEN         SUNNY     57  19  23 W6        30.33F
KENORA         PTSUNNY   52  21  30 SW9       30.35F
$$
                *** MANITOBA***

CITY           SKY/WX    TMP DP  RH WIND       PRES   REMARKS
BRANDON        MOSUNNY   57  30  35 S10       30.26F
DAUPHIN        SUNNY     59  34  38 SW8       30.26F
ISLAND LAKE    SUNNY     52  14  22 N5        30.30F
PILOT MOUND      N/A     55  28  35 S14G20      N/A
THE PAS        MOSUNNY   48  27  43 SE15      30.19F
THOMPSON       MOSUNNY   55  19  24 SW17G25   30.20F
WINNIPEG       CLOUDY    59  36  41 SW12      30.31F
LYNN LAKE      PTSUNNY   52  19  28 S21G29    30.03S
CHURCHILL      PTSUNNY   50  28  43 SW15G24   30.12F
GILLAM         MOSUNNY   55  23  28 SW14G23   30.25F
$$
                ***SASKATCHEWAN***

CITY           SKY/WX    TMP DP  RH WIND       PRES   REMARKS
ESTEVAN        MOSUNNY   61  32  33 SE16      30.16F
KINDERSLEY     PTSUNNY   63  36  36 W16G24    30.01F
LLOYDMINSTER   PTSUNNY   52  36  54 E3        30.00F
PRINCE ALBERT  PTSUNNY   43  32  65 S9        30.12F
REGINA         PTSUNNY   57  37  47 SE18G24   30.14F
YORKTON        SUNNY     46  36  66 SE13G18   30.21F
N. BATTLEFORD  SUNNY     52  41  66 E12       30.04F
LA RONGE       PTSUNNY   59  28  31 S13G24    30.02F
SASKATOON      MOSUNNY   63  41  45 S17G23    30.06F
SWIFT CURRENT  SUNNY     61  39  44 SW23      30.05F
$$
NOTE: THESE ARE AUTOMATED STATIONS WITH LIMITED QUALITY CONTROL
      "FAIR" INDICATES FEW OR NO CLOUDS BELOW 12,000 FEET WITH NO
      SIGNIFICANT WEATHER AND/OR OBSTRUCTIONS TO VISIBILITY.
      SKY/WX - SKY CONDITION AND SIGNIFICANT WEATHER.
      TMP - AIR TEMPERATURE.    DP   - DEWPOINT TEMPERATURE.
      RH  - RELATIVE HUMIDITY.  PRES - PRESSURE.
      HX  - HEAT INDEX.         WCI  - WIND CHILL INDEX.
$




USA.gov is the U.S. government's official web portal to all federal, state and local government web resources and services.